[[{"header":{"parameterUnit":"m.s-1","parameterCategory":1,"la1":30.2991,"la2":30.254,"lo1":-89.0895,"lo2":-89.0444,"dy":0.0017,"dx":0.0017,"nx":28,"ny":28,"refTime":"2024-12-14T03:00:00:Z","depth":0,"parameterNumber":2,"parameterNumberName":"U-component_of_WINDS"},"data":[0,0,0,0,0,0,0,0,0,0,0,0,0,0,0,0,0,0,0,0,0,0,0,0,0,0,0,0,0,0,0,0,0,0,0,0,0,0,0,0,0,0,0,0,0,0,0,0,0,0,0,0,0,0,0,0,0,0,-6.5456,-6.5456,0,-6.5471,-6.5471,-6.5471,-6.5334,-6.533,-6.5326,-6.5322,-6.5335,-6.5339,-6.5343,0,0,0,0,0,0,0,0,0,0,0,0,0,-6.5309,-6.5313,-6.5456,-6.5456,-6.5456,-6.5471,-6.5471,-6.5471,-6.5334,-6.533,-6.5325,-6.5321,-6.5334,-6.5339,-6.5343,0,0,0,0,0,0,0,0,0,0,0,0,0,-6.5353,-6.5314,-6.5456,-6.539,-6.5384,-6.5471,-6.5471,-6.5471,-6.5335,-6.5329,-6.5324,-6.5318,-6.5332,-6.5338,-6.5344,-6.5494,0,0,-6.5362,-6.5364,0,0,0,0,0,0,0,0,-6.5351,-6.5359,-6.5399,-6.5394,-6.5388,-6.5394,-6.5424,-6.5479,-6.5337,-6.5354,-6.5322,-6.5316,-6.5359,-6.5363,-6.5378,-6.5494,-6.5495,-6.5362,-6.5366,-6.5368,-6.537,0,0,0,0,0,0,0,-6.5348,-6.5357,-6.5461,-6.54,-6.5393,-6.5359,-6.5359,-6.5433,-6.5388,-6.5352,-6.5342,-6.5346,-6.5355,-6.5373,-6.5377,-6.5495,-6.5362,-6.5367,-6.5371,-6.5373,-6.5737,-6.5743,0,0,0,0,0,0,-6.5354,-6.5356,-6.5461,-6.5462,-6.5355,-6.5367,-6.5367,-6.5398,-6.5387,-6.538,-6.535,-6.5339,-6.5365,-6.537,-6.5377,-6.5552,-6.5368,-6.5374,-6.5377,-6.5731,-6.5739,-6.5745,0,0,0,0,0,0,-6.5351,-6.5365,-6.546,-6.5406,-6.5416,-6.5375,-6.5412,-6.5401,-6.5418,-6.5386,-6.5377,-6.5376,-6.5361,-6.5369,-6.5466,-6.5551,-6.5376,-6.5382,-6.5724,-6.5733,-6.5742,-6.5903,0,0,0,0,0,0,-6.5348,-6.5365,-6.5421,-6.5409,-6.5419,-6.555,-6.5417,-6.5406,-6.5429,-6.5414,-6.5408,-6.5401,-6.5357,-6.5458,-6.5472,-6.5555,-6.5386,-6.5716,-6.5728,-6.5739,-6.589,-6.5917,-6.594,0,0,0,0,0,-6.5343,-6.5465,-6.5424,-6.5438,-6.5489,-6.5555,-6.5561,-6.5508,-6.5437,-6.5493,-6.5473,-6.5402,-6.554,-6.547,-6.5484,-6.557,-6.571,-6.5725,-6.5738,-6.5879,-6.5912,-6.5939,0,0,0,0,0,0,-6.5486,-6.5462,-6.5416,-6.5538,-6.555,-6.5531,-6.56,-6.5544,-6.5575,-6.556,-6.5493,-6.5493,-6.5602,-6.5596,-6.5518,-6.5716,-6.5613,-6.563,-6.5715,-6.5746,-6.577,-6.5768,-6.5391,0,0,0,0,0,-6.5532,-6.5588,-6.5564,-6.5673,-6.5682,-6.5641,-6.5667,-6.5627,-6.5635,-6.5639,-6.5626,-6.5637,-6.5683,-6.5714,-6.5755,-6.589,-6.5887,-6.5957,-6.5982,-6.6002,-6.6017,-6.6089,-6.612,-6.5791,-6.5791,-6.5791,0,0,-6.5626,-6.562,-6.5659,-6.5702,-6.5706,-6.5766,-6.5645,-6.5713,-6.5756,-6.5649,-6.574,-6.5732,-6.574,-6.5858,-6.5909,-6.5856,-6.6108,-6.602,-6.6037,-6.604,-6.6107,-6.6138,-6.6166,-6.58,-6.5799,-6.5797,0,0,-6.5828,-6.583,-6.5922,-6.593,-6.5939,-6.5911,-6.5934,-6.5926,-6.5916,-6.6007,-6.5929,-6.598,-6.606,-6.607,-6.6085,-6.6297,-6.6233,-6.6312,-6.6441,-6.6512,-6.6538,-6.656,-6.6635,-6.6663,-6.6328,-6.6328,-6.6329,0,-6.5944,-6.6031,-6.5976,-6.605,-6.6071,-6.598,-6.6072,-6.6082,-6.6104,-6.6121,-6.6063,-6.6163,-6.6162,-6.6281,-6.6334,-6.635,-6.6373,-6.6311,-6.6539,-6.6561,-6.6581,-6.6652,-6.668,-6.6338,-6.6337,-6.6336,-6.6335,0,-6.6173,-6.6235,-6.6308,-6.6333,-6.6363,-6.6446,-6.6404,-6.6442,-6.64,-6.6379,-6.6474,-6.6471,-6.651,-6.6536,-6.6494,-6.665,-6.6617,-6.655,-6.6445,-6.6623,-6.6688,-6.6715,-6.6351,-6.6348,-6.6345,-6.6343,0,0,-6.646,-6.6458,-6.6485,-6.6496,-6.6502,-6.6549,-6.6629,-6.6669,-6.6702,-6.6722,-6.6787,-6.686,-6.6799,-6.6816,-6.6776,-6.6839,-6.7007,-6.6764,-6.6763,-6.6809,-6.7179,-6.7227,-6.726,-6.6967,-6.6972,-6.6976,-6.7178,0,-6.6656,-6.6793,-6.6748,-6.6886,-6.6943,-6.686,-6.693,-6.6941,-6.6926,-6.6972,-6.6954,-6.7007,-6.6923,-6.6933,-6.6992,-6.6975,-6.708,-6.696,-6.7026,-6.7029,-6.7024,-6.7294,-6.7344,-6.7535,-6.7203,-6.7207,-6.721,0,-6.6902,-6.6934,-6.7078,-6.7077,-6.7099,-6.7163,-6.7197,-6.7243,-6.7255,-6.7239,-6.7262,-6.721,-6.7289,-6.7187,-6.7294,-6.7214,-6.7239,-6.7235,-6.7241,-6.7243,-6.7128,-6.7301,-6.7594,-6.7622,-6.725,-6.7247,-6.7244,0,-6.7096,-6.7175,-6.7272,-6.7284,-6.7285,-6.7332,-6.7335,-6.7342,-6.737,-6.74,-6.7418,-6.7457,-6.7478,-6.751,-6.747,-6.7399,-6.7584,-6.7478,-6.7572,-6.7574,-6.7611,-6.7609,-6.7911,-6.7633,-6.7632,-6.7632,-6.7631,0,-6.7317,-6.7409,-6.7359,-6.7419,-6.7519,-6.7468,-6.757,-6.7563,-6.7571,-6.7628,-6.7559,-6.7614,-6.7559,-6.7609,-6.7579,-6.7673,-6.7683,-6.7672,-6.7663,-6.7677,-6.7678,-6.769,-6.7675,-6.7639,-6.7638,-6.7636,-6.7635,0,-6.7548,-6.7519,-6.7619,-6.7614,-6.7615,-6.769,-6.7685,-6.774,-6.7722,-6.7795,-6.7809,-6.778,-6.7836,-6.7801,-6.7857,-6.7836,-6.7959,-6.7932,-6.7955,-6.7947,-6.8043,-6.8034,-6.836,-6.84,-6.8099,-6.8102,-6.8104,0,-6.769,-6.7759,-6.7763,-6.7797,-6.7805,-6.786,-6.7889,-6.7844,-6.7876,-6.7898,-6.7951,-6.8002,-6.8039,-6.8133,-6.8116,-6.8159,-6.8132,-6.8244,-6.8137,-6.815,-6.8131,-6.8127,-6.8133,-6.8264,-6.8267,-6.827,-6.8273,0,-6.7945,-6.7928,-6.7973,-6.8015,-6.8052,-6.8082,-6.8106,-6.8138,-6.8092,-6.8133,-6.8191,-6.8221,-6.828,-6.8331,-6.8368,-6.837,-6.8314,-6.8307,-6.8331,-6.8344,-6.8354,-6.8349,-6.8011,-6.8299,-6.8296,-6.8294,-6.8293,-6.8292,-6.8134,-6.8192,-6.8205,-6.8258,-6.8273,-6.8298,-6.835,-6.834,-6.8388,-6.8433,-6.8404,-6.8472,-6.8485,-6.853,-6.854,-6.8593,-6.8547,-6.8582,-6.859,-6.8598,-6.8611,-6.835,-6.8599,-6.8599,-6.8598,-6.8597,-6.8597,0,-6.8384,-6.8389,-6.8439,-6.8477,-6.852,-6.8467,-6.8492,-6.8531,-6.8592,-6.861,-6.865,-6.8717,-6.8768,-6.8758,-6.8803,-6.8847,-6.8823,-6.8861,-6.8855,-6.8857,-6.865,-6.8624,-6.888,-6.888,-6.888,-6.888,-6.888,-6.8879,-6.8518,-6.8614,-6.86,-6.8703,-6.8707,-6.8775,-6.8794,-6.8817,-6.8832,-6.8911,-6.8953,-6.8947,-6.8954,-6.9001,-6.9045,-6.9041,-6.906,-6.9107,-6.9093,-6.8899,-6.8871,-6.8844,-6.8819,-6.9112,-6.9112,-6.9295,-6.9297,-6.9298]},{"header":{"parameterUnit":"m.s-1","parameterCategory":1,"la1":30.2991,"la2":30.254,"lo1":-89.0895,"lo2":-89.0444,"dy":0.0017,"dx":0.0017,"nx":28,"ny":28,"refTime":"2024-12-14T03:00:00:Z","depth":0,"parameterNumber":3,"parameterNumberName":"V-component_of_WINDS"},"data":[0,0,0,0,0,0,0,0,0,0,0,0,0,0,0,0,0,0,0,0,0,0,0,0,0,0,0,0,0,0,0,0,0,0,0,0,0,0,0,0,0,0,0,0,0,0,0,0,0,0,0,0,0,0,0,0,0,0,0.8619,0.862,0,0.8677,0.8678,0.8678,0.8759,0.876,0.8762,0.8763,0.8816,0.8816,0.8816,0,0,0,0,0,0,0,0,0,0,0,0,0,0.8576,0.8576,0.8619,0.862,0.8621,0.8677,0.8678,0.8678,0.8758,0.876,0.8762,0.8763,0.8816,0.8816,0.8816,0,0,0,0,0,0,0,0,0,0,0,0,0,0.861,0.8576,0.8619,0.8668,0.8673,0.8677,0.8678,0.8679,0.8758,0.876,0.8762,0.8764,0.8816,0.8816,0.8816,0.8775,0,0,0.8816,0.8816,0,0,0,0,0,0,0,0,0.8608,0.8611,0.866,0.8664,0.867,0.8713,0.8682,0.8711,0.8758,0.8725,0.8763,0.8765,0.8779,0.8783,0.8789,0.8778,0.878,0.8816,0.8817,0.8817,0.8817,0,0,0,0,0,0,0,0.8605,0.8609,0.8642,0.866,0.8667,0.8685,0.8693,0.8687,0.874,0.8728,0.8734,0.874,0.8782,0.8788,0.879,0.8781,0.8816,0.8817,0.8817,0.8817,0.8742,0.874,0,0,0,0,0,0,0.8596,0.8607,0.864,0.8644,0.8643,0.8685,0.8693,0.8697,0.874,0.8749,0.8739,0.8744,0.8787,0.879,0.8793,0.875,0.8817,0.8817,0.8817,0.8744,0.8741,0.8739,0,0,0,0,0,0,0.8595,0.8598,0.8638,0.8627,0.8633,0.8683,0.8687,0.8697,0.8703,0.8748,0.8757,0.8735,0.8789,0.8792,0.878,0.8753,0.8817,0.8817,0.8746,0.8743,0.874,0.8662,0,0,0,0,0,0,0.8593,0.8598,0.8583,0.8626,0.8634,0.8625,0.8686,0.8697,0.8704,0.8711,0.8747,0.8755,0.8791,0.8779,0.878,0.8754,0.8817,0.8749,0.8745,0.8741,0.8667,0.8656,0.8647,0,0,0,0,0,0.8592,0.8557,0.8582,0.8586,0.8617,0.8623,0.8627,0.8671,0.8701,0.8687,0.8716,0.8754,0.8756,0.8777,0.8779,0.8752,0.8751,0.8746,0.8742,0.8672,0.8659,0.8648,0,0,0,0,0,0,0.8506,0.8563,0.8592,0.857,0.8592,0.8637,0.862,0.8655,0.8667,0.8673,0.8725,0.8732,0.8714,0.8732,0.8755,0.8717,0.8759,0.8754,0.8705,0.8693,0.8684,0.8679,0.8817,0,0,0,0,0,0.8486,0.8487,0.8536,0.8512,0.8522,0.8569,0.8573,0.8605,0.8629,0.8637,0.8666,0.8686,0.8691,0.8693,0.87,0.8671,0.868,0.8653,0.8643,0.8635,0.863,0.8617,0.8606,0.8724,0.8724,0.8724,0,0,0.8442,0.8473,0.847,0.8496,0.8517,0.8517,0.8576,0.8572,0.8573,0.8636,0.8628,0.8649,0.8675,0.8654,0.8646,0.8668,0.86,0.8629,0.8622,0.8622,0.8611,0.86,0.859,0.8721,0.8721,0.8722,0,0,0.8362,0.8385,0.837,0.839,0.8421,0.8453,0.8449,0.849,0.8508,0.85,0.8549,0.8549,0.8556,0.8574,0.8583,0.8513,0.8549,0.8514,0.8462,0.8449,0.844,0.8432,0.8408,0.8398,0.8509,0.8509,0.8509,0,0.8303,0.8306,0.8356,0.8351,0.8362,0.8422,0.8406,0.8423,0.8453,0.8459,0.8484,0.8497,0.8518,0.8504,0.8487,0.8492,0.849,0.851,0.8437,0.843,0.8423,0.8401,0.8391,0.8505,0.8505,0.8506,0.8506,0,0.8233,0.8234,0.8217,0.8249,0.8258,0.8247,0.8295,0.8297,0.8329,0.8358,0.835,0.8379,0.8394,0.8393,0.8422,0.8382,0.8396,0.8428,0.8472,0.8407,0.8387,0.8378,0.8498,0.85,0.8501,0.8502,0,0,0.8098,0.8161,0.8154,0.817,0.8211,0.8212,0.8205,0.8222,0.8224,0.8243,0.8238,0.8245,0.8277,0.8288,0.832,0.8309,0.8253,0.8343,0.8345,0.8326,0.8212,0.8187,0.8177,0.8277,0.8276,0.8275,0.821,0,0.8027,0.8019,0.8066,0.8045,0.8048,0.8107,0.8101,0.8124,0.8152,0.8157,0.8187,0.8192,0.8233,0.824,0.8231,0.8262,0.8231,0.8267,0.8272,0.8272,0.8264,0.8166,0.8139,0.8077,0.8203,0.8201,0.82,0,0.7941,0.796,0.7941,0.7985,0.7988,0.7982,0.8003,0.8008,0.8036,0.8057,0.8071,0.8109,0.8105,0.8147,0.8141,0.8165,0.817,0.8185,0.8184,0.8186,0.8232,0.8165,0.8058,0.8048,0.8188,0.8189,0.819,0,0.7847,0.7867,0.7859,0.7871,0.7922,0.7916,0.7937,0.7968,0.7976,0.7994,0.8,0.8016,0.8024,0.8035,0.8077,0.8104,0.8067,0.8112,0.8084,0.8082,0.8072,0.8072,0.7964,0.8075,0.8075,0.8076,0.8076,0,0.7762,0.7748,0.7818,0.7812,0.7799,0.7852,0.7837,0.7863,0.7891,0.7891,0.7942,0.7941,0.7997,0.8002,0.8035,0.8026,0.8029,0.8045,0.8054,0.804,0.8038,0.8044,0.8049,0.8073,0.8074,0.8074,0.8075,0,0.7653,0.77,0.7695,0.7745,0.7757,0.7745,0.7787,0.7784,0.7817,0.7817,0.782,0.7869,0.7878,0.7922,0.794,0.7962,0.7941,0.7959,0.7932,0.7938,0.7907,0.791,0.7799,0.7787,0.7905,0.7904,0.7903,0,0.7596,0.7587,0.7638,0.7643,0.7663,0.767,0.768,0.7732,0.774,0.7774,0.7767,0.778,0.7794,0.7806,0.7842,0.7857,0.7875,0.7836,0.7877,0.7865,0.7875,0.7875,0.7875,0.7826,0.7824,0.7823,0.7822,0,0.749,0.7514,0.7528,0.7549,0.7561,0.758,0.7602,0.7603,0.7661,0.7667,0.7679,0.769,0.7711,0.7723,0.7745,0.7765,0.7803,0.7809,0.7803,0.7789,0.7775,0.7783,0.7908,0.7811,0.7812,0.7813,0.7814,0.7814,0.7406,0.7402,0.7438,0.7451,0.7474,0.7494,0.7495,0.7528,0.754,0.7562,0.7592,0.76,0.763,0.7664,0.7681,0.7687,0.7709,0.77,0.7698,0.7695,0.7689,0.7774,0.7691,0.7692,0.7692,0.7692,0.7693,0,0.7303,0.733,0.7342,0.7373,0.7384,0.7422,0.7449,0.7455,0.7462,0.7488,0.7502,0.7516,0.753,0.7569,0.7586,0.7583,0.7601,0.7586,0.7587,0.7591,0.7668,0.7672,0.7572,0.7572,0.7572,0.7572,0.7572,0.7572,0.7251,0.7247,0.7275,0.7283,0.731,0.732,0.7332,0.7351,0.7373,0.7387,0.7399,0.7426,0.7457,0.7478,0.7492,0.7503,0.7507,0.7486,0.7502,0.7574,0.7585,0.7596,0.76,0.7486,0.7486,0.7425,0.7425,0.7424]}]]